Mackall AAF, NC

9:44 AM EST on December 15, 2017 (GMT -0500)
Mackall Army Air Field

Weather History for KHFF - March, 2014

Change the Weather History Date:

Friday, March 7, 2014

  Actual Average Record
Temperature  
Mean Temperature 36 °F -  
Max Temperature 39 °F 56 °F 79 °F (2009)
Min Temperature 32 °F 36 °F 21 °F (2015)
Degree Days  
Heating Degree Days 28    
Moisture  
Dew Point 36 °F    
Average Humidity 96    
Maximum Humidity 100    
Minimum Humidity 93    
Precipitation  
Precipitation 1.60 in - - ()
Sea Level Pressure  
Sea Level Pressure 29.93 in    
Wind  
Wind Speed 18 mph (North)    
Max Wind Speed 29 mph    
Max Gust Speed 38 mph    
Visibility 9 miles    
Events Rain , Snow    
Averages and records for this station are not official NWS values.
T = Trace of Precipitation, MM = Missing Value Source: NWS Daily Summary

Daily Weather History Graph

Daily Weather History Graph

Search for Another Location

Airport or City:

Trip Planner

Search our weather history database for the weather conditions in past years. The results will help you decide how hot, cold, wet, or windy it might be!

Date:

Astronomy

Mar. 07, 2014 Rise Set
Actual Time 6:39 AM EST 6:18 PM EST
Civil Twilight 6:14 AM EST 6:44 PM EST
Nautical Twilight 5:45 AM EST 7:13 PM EST
Astronomical Twilight 5:15 AM EST 7:42 PM EST
Moon 10:45 AM EST (3/7) 12:08 AM EST (3/7)
Length of Visible Light 12h 29m
Length of Day
11h 39m
Waxing Crescent, 42% of the Moon is Illuminated
Mar 7
Waxing Crescent
Mar 8
First Quarter
Mar 16
Full
Mar 23
Last Quarter
Mar 30
New

Hourly Weather History & Observations

Time (EST) Temp. Windchill Dew Point Humidity Pressure Visibility Wind Dir Wind Speed Gust Speed Precip Events Conditions
12:11 AM 35.6 °F 24.2 °F 33.8 °F 93% 29.97 in 7.0 mi NE 21.9 mph 34.5 mph N/A Rain , Snow Light Rain
12:56 AM 34.9 °F 21.8 °F 34.3 °F 98% 29.93 in 3.0 mi NNE 28.8 mph 38.0 mph 0.09 in Rain , Snow Light Rain
1:56 AM 35.4 °F 24.6 °F 34.9 °F 98% 29.94 in 10.0 mi North 19.6 mph 31.1 mph 0.11 in Rain Light Rain
2:56 AM 35.6 °F 24.2 °F 35.2 °F 99% 29.93 in 5.0 mi NNE 21.9 mph 34.5 mph 0.20 in Rain Rain
3:06 AM 35.6 °F 24.5 °F 35.6 °F 100% 29.90 in 5.0 mi NNE 20.7 mph 31.1 mph N/A Rain Rain
3:16 AM 35.6 °F 23.7 °F 35.6 °F 100% 29.88 in 6.0 mi NNE 24.2 mph 35.7 mph N/A Rain Rain
3:56 AM 36.3 °F 25.2 °F 36.0 °F 99% 29.89 in 11.0 mi NNE 21.9 mph 33.4 mph 0.05 in Rain Light Rain
4:56 AM 36.9 °F 25.6 °F 36.3 °F 98% 29.90 in 8.0 mi NNE 23.0 mph 32.2 mph 0.05 in Rain Light Rain
5:56 AM 37.0 °F 27.7 °F 36.3 °F 97% 29.92 in 7.0 mi NNE 16.1 mph 23.0 mph 0.09 in Rain Rain
6:56 AM 36.5 °F 27.0 °F 35.8 °F 97% 29.92 in 10.0 mi NNE 16.1 mph 31.1 mph 0.07 in Rain Light Rain
7:56 AM 37.0 °F 26.7 °F 35.4 °F 94% 29.92 in 12.0 mi North 19.6 mph 32.2 mph 0.03 in Rain Light Rain
8:06 AM 37.4 °F 27.8 °F 35.6 °F 93% 29.91 in 12.0 mi North 17.3 mph 28.8 mph N/A Rain Light Rain
8:56 AM 36.9 °F 26.8 °F 35.4 °F 95% 29.94 in 12.0 mi NNE 18.4 mph 26.5 mph 0.02 in Rain Light Rain
9:56 AM 36.9 °F 27.5 °F 35.6 °F 95% 29.94 in 11.0 mi North 16.1 mph 23.0 mph 0.01 in Rain Light Rain
10:56 AM 37.2 °F 27.3 °F 36.0 °F 95% 29.93 in 7.0 mi North 18.4 mph 26.5 mph 0.06 in Rain Rain
11:56 AM 37.2 °F 27.6 °F 36.1 °F 96% 29.90 in 8.0 mi North 17.3 mph 26.5 mph 0.06 in Rain Rain
12:56 PM 38.1 °F 29.1 °F 37.0 °F 96% 29.89 in 6.0 mi North 16.1 mph 29.9 mph 0.17 in Rain Heavy Rain
1:56 PM 38.3 °F 30.1 °F 37.0 °F 95% 29.89 in 12.0 mi North 13.8 mph 19.6 mph 0.17 in Rain Rain
2:56 PM 37.8 °F 28.3 °F 36.7 °F 96% 29.89 in 8.0 mi North 17.3 mph 23.0 mph 0.18 in Rain Rain
3:56 PM 38.7 °F 29.8 °F 37.4 °F 95% 29.89 in 4.0 mi North 16.1 mph 29.9 mph 0.12 in Rain Light Rain
4:56 PM 38.8 °F 29.7 °F 37.6 °F 95% 29.91 in 5.0 mi North 17.3 mph 24.2 mph 0.08 in Rain Light Rain
5:56 PM 39.0 °F 30.6 °F 37.6 °F 95% 29.93 in 12.0 mi North 15.0 mph 20.7 mph 0.03 in Rain Light Rain
6:26 PM 39.2 °F 32.0 °F 37.4 °F 93% 29.91 in 12.0 mi North 11.5 mph - N/A Rain Light Rain
6:36 PM 39.2 °F 31.6 °F 37.4 °F 93% 29.92 in 12.0 mi North 12.7 mph 20.7 mph N/A Rain Light Rain
6:40 PM 39.2 °F 32.0 °F 37.4 °F 93% 29.92 in 12.0 mi North 11.5 mph 19.6 mph N/A   Mostly Cloudy
6:56 PM 37.9 °F 30.5 °F 36.1 °F 93% 29.94 in 12.0 mi North 11.5 mph 18.4 mph 0.01 in   Mostly Cloudy
7:56 PM 37.0 °F 32.4 °F 35.6 °F 95% 29.96 in 12.0 mi NNW 5.8 mph - N/A   Clear
8:56 PM 36.3 °F 31.6 °F 35.1 °F 95% 29.98 in 12.0 mi NNW 5.8 mph - N/A   Clear
9:56 PM 36.1 °F 33.5 °F 34.3 °F 93% 30.00 in 12.0 mi NW 3.5 mph - N/A   Clear
10:56 PM 34.7 °F - 33.3 °F 94% 29.99 in 12.0 mi North 1.2 mph - N/A   Clear
11:56 PM 32.5 °F - 32.5 °F 100% 30.00 in 7.0 mi Variable 1.2 mph - N/A   Clear